Location: ???????
(55.4362°N, 38.1183°E)
Time: 16:26:42
(UTC+00:00)

FALCON 9 DEB - Pass Details

Date: 29 October 2021
Orbit: 344 x 356 km, 53.0° (Epoch: 29 November)

Event Time Altitude Azimuth Distance (km) Brightness Sun altitude
Rises 16:02:33 0° 228° (SW) 2,174 7.4 -18.5°
Reaches altitude 10° 16:04:43 10° 216° (SW) 1,337 6.0 -18.8°
Enters shadow 16:06:26 23° 186° (S) 831 4.5 -19.0°
